{"data":{"norad_id":66198,"intl_designator":"2025-243X","name":"STARLINK-35518","alt_names":[],"object_type":"PAYLOAD","status":"ACTIVE","operator":null,"country":"US","launch_date":"2025-10-26","launch_site_code":"AFETR","launch_vehicle":null,"mission":null,"orbit_class":"UNKNOWN","rcs_meters":null,"size_class":null,"mass_kg":null,"dimensions":null,"purposes":["comms"],"wikipedia_slug":null,"has_3d_model":false,"image_url":null,"decayed_at":null,"tle_current":{"epoch":"2026-05-25T00:13:43.055904Z","epoch_age_seconds":75042,"freshness":"FRESH","line1":"1 66198U 25243X   26145.00952611  .00010611  00000+0  36978-3 0  9992","line2":"2 66198  53.1596 251.1104 0001285  86.3831 273.7317 15.30207395 32336","mean_motion":15.30207395,"eccentricity":0.0001285,"inclination_deg":53.1596,"raan_deg":251.1104,"arg_perigee_deg":86.3831,"mean_anomaly_deg":273.7317,"bstar":0.00036978,"rev_number":3233,"period_min":94.104890925586,"perigee_km":474.31233646757,"apogee_km":476.07364227484,"semimajor_km":6853.3299893712,"source":"CELESTRAK","updated_at":"2026-05-25T13:38:21.124195Z"}}}